Flag for Gaza Strip Weather past 2 weeks in Gaza, Gaza Strip

Now
72 °F

Clear.


Feels Like: 76 °F
Forecast: 60 / 71 °F
Wind: 5 mph from North

Location: Ben Gurion International Airport


UV Index: 7 (High)

Visibility: 10 mi


Pressure: 29.83 "Hg

Humidity: 61%

Dew point: 57 °F

Location of GazaLocation

Historic Weather in Gaza

°F

Gaza temperature yesterday

Maximum temperature yesterday: 91 °F (at 11:50 AM)
Minimum temperature yesterday: 73 °F (at 6:20 AM)
Average temperature yesterday: 83 °F

Past Weeks' High & Low Weather Summary

 TemperatureHumidityPressure
High93 °F (Apr 18, 5:20 PM)88% (Apr 8, 3:20 AM)30.09 "Hg (Apr 8, 3:20 AM)
Low52 °F (Apr 5, 5:50 AM)20% (Apr 6, 11:50 AM)29.80 "Hg (Apr 16, 2:50 AM)
Average70 °F55%29.94 "Hg
* Reported Apr 5 5:20 AM — Apr 20 5:20 AM, Gaza, Weather by CustomWeather, © 2014

Note: Actual official high and low records may vary slightly from our data, if they occured in-between our weather recording intervals... More about our weather records

Advertising

Historic Weather Conditions — Data for Previous 24 hours

 ConditionsComfort  
Time TempWeatherWind HumidityBarometerVisibility
5:20 AM
Apr 20
73 °FClear.6 mph57%29.83 "Hg10 mi
4:50 AM72 °FClear.5 mph57%29.83 "Hg10 mi
4:20 AM72 °FClear.3 mph57%29.83 "Hg10 mi
3:50 AM70 °FClear.6 mph60%29.83 "Hg10 mi
3:20 AM72 °FClear.1 mph57%29.83 "Hg10 mi
2:50 AM72 °FClear.3 mph53%29.86 "Hg10 mi
2:20 AM73 °FClear.5 mph50%29.86 "Hg10 mi
1:50 AM73 °FClear.6 mph50%29.86 "Hg10 mi
1:20 AM73 °FPassing clouds.5 mph53%29.89 "HgN/A
12:50 AM73 °FClear.5 mph57%29.89 "Hg10 mi
12:20 AM73 °FClear.2 mph61%29.92 "Hg10 mi
11:50 PM
Apr 19
73 °FClear.5 mph61%29.92 "Hg10 mi
11:20 PM75 °FClear.8 mph54%29.92 "Hg10 mi
10:50 PM77 °FClear.6 mph44%29.95 "Hg10 mi
10:20 PM79 °FClear.8 mph42%29.95 "Hg10 mi
9:50 PM81 °FClear.9 mph39%29.92 "Hg10 mi
9:20 PM82 °FClear.15 mph35%29.95 "Hg10 mi
8:50 PM88 °FClear.8 mph24%29.89 "Hg10 mi
8:20 PM88 °FClear.14 mph24%29.89 "Hg10 mi
7:50 PM88 °FSunny.15 mph24%29.89 "Hg10 mi
7:20 PM84 °FSunny.7 mph25%29.92 "Hg10 mi
6:50 PM84 °FSunny.5 mph25%29.92 "Hg10 mi
6:20 PM88 °FSunny.5 mph21%29.92 "Hg10 mi
5:50 PM86 °FSunny.9 mph22%29.89 "Hg10 mi
5:20 PM86 °FSunny.16 mph22%29.89 "Hg10 mi
4:50 PM84 °FSunny.13 mph27%29.89 "Hg10 mi
4:20 PM84 °FSunny.15 mph29%29.89 "Hg10 mi
3:50 PM84 °FSunny.18 mph29%29.92 "Hg10 mi
3:20 PM88 °FSunny.17 mph31%29.89 "Hg10 mi
2:50 PM91 °FSunny.13 mph20%29.86 "Hg10 mi
2:20 PM90 °FSunny.15 mph20%29.86 "Hg10 mi
1:50 PM90 °FSunny.12 mph21%29.89 "Hg10 mi
1:20 PM88 °FSunny.13 mph21%29.92 "Hg10 mi
12:50 PM86 °FSunny.21 mph24%29.92 "Hg10 mi
12:20 PM90 °FSunny.16 mph24%29.92 "Hg10 mi
11:50 AM91 °FSunny.6 mph23%29.89 "Hg10 mi
11:20 AM88 °FSunny.8 mph25%29.89 "Hg10 mi
10:50 AM86 °FSunny.6 mph29%29.92 "Hg10 mi
10:20 AM84 °FSunny.6 mph31%29.92 "Hg10 mi
9:50 AM82 °FSunny.6 mph30%29.92 "Hg10 mi
9:20 AM82 °FSunny.6 mph32%29.92 "Hg10 mi
8:50 AM81 °FSunny.7 mph37%29.92 "Hg10 mi
8:20 AM77 °FSunny.7 mph44%29.92 "Hg10 mi
7:50 AM75 °FSunny.7 mph47%29.92 "Hg10 mi
7:20 AM73 °FSunny.7 mph47%29.89 "Hg10 mi
6:50 AM73 °FClear.3 mph44%29.89 "Hg10 mi
6:20 AM73 °FClear.8 mph41%29.89 "Hg10 mi
Weather by CustomWeather, © 2014

See weather overview